AirNav  
 
 602 users online  

CL07 Queen Mary Heliport
Long Beach, California, USA

GOING TO LONG BEACH?


FAA INFORMATION EFFECTIVE 09 NOVEMBER 2017

Location

FAA Identifier: CL07
Lat/Long: 33-44-56.8400N / 118-11-24.5200W
33-44.947333N / 118-11.408667W
33.7491222 / -118.1901444
(estimated)
Elevation: 14 ft. / 4 m (estimated)
Variation: 13E (1995)
From city: 1 mile S of LONG BEACH, CA
Time zone: UTC -8 (UTC -7 during Daylight Saving Time)
Zip code: 90802

Heliport Operations

Heliport use: Private use. Permission required prior to landing
Activation date: 09/1999
Control tower: no
ARTCC: LOS ANGELES CENTER
FSS: HAWTHORNE FLIGHT SERVICE STATION
Attendance: 0700-1900
Wind indicator: yes
Segmented circle: no

Heliport Communications

WX ASOS at LGB (5 nm NE): PHONE 562-424-0572
WX AWOS-3PT at CPM (9 nm N): 127.150 (310-631-4958)
WX ASOS at HHR (13 nm NW): PHONE 310-973-8930
WX ASOS at FUL (13 nm NE): PHONE 714-870-1372
WX ASOS at LAX (16 nm NW): PHONE 310-568-1486
WX ASOS at SNA (17 nm E): PHONE 714-424-0590

Nearby radio navigation aids

VOR radial/distance  VOR name  Freq  Var
SLIr238/7.1SEAL BEACH VORTAC115.7015E
LAXr117/16.3LOS ANGELES VORTAC113.6015E
SMOr125/20.5SANTA MONICA VOR/DME110.8015E
ELBr267/23.3EL TORO VOR/DME117.2014E
SXCr012/25.2SANTA CATALINA VORTAC111.4015E
POMr210/28.2POMONA VORTAC110.4015E
VNYr137/32.2VAN NUYS VOR/DME113.1015E
PDZr238/34.4PARADISE VORTAC112.2015E
RALr237/(38.9)RIVERSIDE VOR112.4014E

 
NDB name  Hdg/Dist  Freq  Var  ID
BECCA251/5.623314ELG .-.. --.
EL MONTE186/21.835915EEMT . -- -

Heliport Services

Fuel available: A

Runway Information

Helipad H1

Dimensions: 80 x 80 ft. / 24 x 24 m
Surface: asphalt
Operational restrictions: CIRCULAR HELIPAD.
Latitude: 33-44.947333N
Longitude: 118-11.408667W
Elevation: 14.0 ft.
Traffic pattern: leftleft

Helipad H2

Dimensions: 60 x 60 ft. / 18 x 18 m
Surface: asphalt/concrete
Latitude: 33-44.932167N
Longitude: 118-11.401000W
Elevation: 14.0 ft.
Traffic pattern: leftleft

Heliport Ownership and Management from official FAA records

Ownership: Privately-owned
Manager: ISLAND EXPRESS HELICOPTERS`
1175 QUEENS HWY SOUTH
LONG BEACH, CA 90802
Phone 310-510-2525

Heliport Operational Statistics

Aircraft based on the field: 3
Helicopters: 3
    

Instrument Procedures

There are no published instrument procedures at CL07.

Some nearby airports with instrument procedures:

KLGB - Long Beach Airport (Daugherty Field) (5 nm NE)
KSLI - Los Alamitos Army Airfield (7 nm E)
KTOA - Zamperini Field Airport (8 nm NW)
KHHR - Jack Northrop Field/Hawthorne Municipal Airport (13 nm NW)
KFUL - Fullerton Municipal Airport (13 nm NE)
KLAX - Los Angeles International Airport (16 nm NW)
KSNA - John Wayne-Orange County Airport (17 nm E)
 
Loc | Ops | Rwys | IFR | FBO | Links
Com | Nav | Svcs | Stats | Notes


 
Area around CL07 (Queen Mary Heliport)
 
Road maps at: MapQuest Bing Google
 
Aerial photo
WARNING: Photo may not be current or correct
Aerial photo of CL07 (Queen Mary Heliport)
Do you have a better or more recent aerial photo of Queen Mary Heliport that you would like to share? If so, please send us your photo.

 
Sectional chart

 
Airport distance calculator
Flying to Queen Mary Heliport? Find the distance to fly.

From to CL07

Sunrise and sunset
Times for 23-Nov-2017
 Local
(UTC-8)
 Zulu
(UTC)
Morning civil twilight06:0614:06
Sunrise06:3314:33
Sunset16:4500:45
Evening civil twilight17:1201:12

Current date and time
Zulu (UTC)  23-Nov-2017 14:04:39
Local (UTC-8)  23-Nov-2017 06:04:39
 
METAR
KLGB 
5nm NE 
231353Z AUTO 00000KT 10SM CLR 19/06 A3000 RMK AO2 SLP160 T01890056
KTOA 
7nm W 
230347Z 00000KT 10SM SKC 22/05 A3002
KSLI 
8nm E 
231358Z AUTO 00000KT 10SM CLR 14/08 A3000 RMK AO2 SLP162 T01420079
KHHR 
12nm NW 
231353Z 00000KT 10SM CLR 21/05 A3001 RMK AO2 SLP159 T02110050 $
KFUL 
12nm NE 
231353Z AUTO 00000KT 10SM CLR 16/09 A3000 RMK AO2 SLP158 T01560089
KLAX 
15nm NW 
231353Z 05005KT 10SM FEW250 22/04 A3001 RMK AO2 SLP158 T02220044
KSNA 
17nm E 
231353Z 00000KT 10SM CLR 16/10 A3000 RMK AO2 SLP158 T01560100
KCQT 
18nm N 
231347Z AUTO 03004KT 10SM CLR 21/04 A3001 RMK AO2 SLP158 T02110039
TAF
KLGB 
5nm NE 
231123Z 2312/2412 VRB03KT P6SM SKC FM232100 29006KT P6SM SCT250 FM240300 VRB03KT P6SM SCT250
KSLI 
8nm E 
222103Z 2221/2403 VRB06KT 9999 SKC QNH2998INS TX32/2222Z TN12/2313Z
KLAX 
15nm NW 
231123Z 2312/2418 06005KT P6SM SKC FM231500 VRB03KT P6SM SKC FM232100 27008KT P6SM SCT250 FM240400 VRB03KT P6SM SCT250
KSNA 
17nm E 
231120Z 2312/2412 VRB06KT P6SM SKC
NOTAMs
Click for the latest NOTAMs
NOTAMs are issued by the DoD/FAA and will open in a separate window not controlled by AirNav.

 

 
 

Would you like to see your business listed on this page?

 If your business provides an interesting product or service to pilots, flight crews, aircraft, or users of the Queen Mary Heliport, you should consider listing it here.  To start the listing process, click on the button below
 
Add a business
 

Other Pages about Queen Mary Heliport

Update a link
 
Copyright © AirNav, LLC. All rights reserved. Privacy Policy  Contact